SND1 ZULS-ZUDC

Flight info

Callsign SND1
Flight time 1h 10m
Altitude 37100
Route LXA W500 DM W9 KDJ KDJ81A
Aircraft A319/M-SDE3FGHIRWY/LB1

Departure

Time 2026-05-05 23:49
Airport Lhasa Gonggar International Airport (ZULS)

Arrival

Time 2026-05-06 01:00
Airport Daocheng Yading Airport (ZUDC)
Time Latitude Longitude Altitude Speed Heading
2026-05-05 23:24 29.29435 90.89867 11577 ft 0 kts 173°
2026-05-05 23:41 29.29446 90.89865 11580 ft 4 kts 172°
2026-05-05 23:41 29.29468 90.89862 11572 ft 4 kts 176°
2026-05-05 23:41 29.29495 90.89864 11565 ft 4 kts 196°
2026-05-05 23:42 29.29516 90.89873 11565 ft 1 kts 208°
2026-05-05 23:42 29.29517 90.89874 11566 ft 0 kts 208°
2026-05-05 23:45 29.29511 90.89865 11565 ft 3 kts 235°
2026-05-05 23:45 29.29515 90.89826 11574 ft 7 kts 287°
2026-05-05 23:45 29.29521 90.89756 11575 ft 11 kts 270°
2026-05-05 23:45 29.29519 90.89653 11579 ft 14 kts 269°
2026-05-05 23:46 29.29517 90.89542 11580 ft 14 kts 269°
2026-05-05 23:46 29.29515 90.89433 11580 ft 13 kts 269°
2026-05-05 23:46 29.29514 90.89327 11580 ft 13 kts 268°
2026-05-05 23:46 29.29513 90.89239 11579 ft 9 kts 272°
2026-05-05 23:47 29.29553 90.89205 11572 ft 8 kts 358°
2026-05-05 23:47 29.29608 90.89203 11568 ft 9 kts 358°
2026-05-05 23:47 29.29675 90.89201 11579 ft 11 kts 358°
2026-05-05 23:47 29.29750 90.89230 11580 ft 15 kts 47°
2026-05-05 23:48 29.29779 90.89407 11570 ft 43 kts 89°
2026-05-05 23:48 29.29787 90.89994 11582 ft 102 kts 89°
2026-05-05 23:48 29.29804 90.91012 11581 ft 152 kts 89°
2026-05-05 23:48 29.29824 90.92385 11611 ft 188 kts 89°
2026-05-05 23:49 29.29845 90.93853 12191 ft 183 kts 90°
2026-05-05 23:49 29.29867 90.95323 12792 ft 185 kts 90°
2026-05-05 23:49 29.29889 90.96795 13416 ft 186 kts 90°
2026-05-05 23:49 29.29912 90.98338 13629 ft 204 kts 90°
2026-05-05 23:50 29.29984 91.00043 13758 ft 225 kts 83°
2026-05-05 23:50 29.30350 91.01882 13851 ft 249 kts 72°
2026-05-05 23:50 29.31099 91.03780 14022 ft 271 kts 64°
2026-05-05 23:50 29.31748 91.05845 14460 ft 279 kts 79°
2026-05-05 23:51 29.31913 91.08074 15078 ft 284 kts 94°
2026-05-05 23:51 29.31572 91.10306 15726 ft 287 kts 108°
2026-05-05 23:51 29.31015 91.12566 16070 ft 306 kts 105°
2026-05-05 23:51 29.30553 91.15045 16241 ft 330 kts 101°
2026-05-05 23:52 29.30230 91.17746 16386 ft 354 kts 96°
2026-05-05 23:52 29.30027 91.20612 16772 ft 366 kts 95°
2026-05-05 23:52 29.29820 91.23545 17362 ft 372 kts 95°
2026-05-05 23:52 29.29605 91.26517 17988 ft 377 kts 96°
2026-05-05 23:53 29.29383 91.29531 18561 ft 383 kts 96°
2026-05-05 23:53 29.29157 91.32588 19123 ft 387 kts 96°
2026-05-05 23:53 29.28929 91.35679 19648 ft 392 kts 96°
2026-05-05 23:53 29.28695 91.38816 20201 ft 396 kts 96°
2026-05-05 23:54 29.28457 91.41982 20747 ft 401 kts 96°
2026-05-05 23:54 29.28215 91.45180 21283 ft 406 kts 96°
2026-05-05 23:54 29.27970 91.48420 21815 ft 410 kts 96°
2026-05-05 23:54 29.27722 91.51693 22342 ft 415 kts 96°
2026-05-05 23:55 29.27460 91.55002 22866 ft 419 kts 96°
2026-05-05 23:55 29.27180 91.58343 23387 ft 424 kts 96°
2026-05-05 23:55 29.26892 91.61672 23836 ft 428 kts 96°
2026-05-05 23:55 29.26593 91.65081 24256 ft 433 kts 97°
2026-05-05 23:56 29.26290 91.68529 24670 ft 437 kts 96°
2026-05-05 23:56 29.25985 91.72010 25073 ft 441 kts 96°
2026-05-05 23:56 29.25679 91.75521 25472 ft 445 kts 96°
2026-05-05 23:56 29.25426 91.79071 25866 ft 449 kts 94°
2026-05-05 23:57 29.25280 91.82663 26268 ft 454 kts 92°
2026-05-05 23:57 29.25207 91.86294 26664 ft 457 kts 91°
2026-05-05 23:57 29.25163 91.89947 27047 ft 462 kts 91°
2026-05-05 23:57 29.25119 91.93642 27435 ft 465 kts 91°
2026-05-05 23:58 29.25057 91.97366 27789 ft 469 kts 91°
2026-05-05 23:58 29.24971 92.01115 28173 ft 473 kts 92°
2026-05-05 23:58 29.24867 92.04893 28554 ft 476 kts 92°
2026-05-05 23:58 29.24749 92.08700 28942 ft 480 kts 92°
2026-05-05 23:59 29.24627 92.12537 29314 ft 484 kts 92°
2026-05-05 23:59 29.24504 92.16399 29693 ft 487 kts 92°
2026-05-05 23:59 29.24383 92.20289 30036 ft 491 kts 92°
2026-05-05 23:59 29.24267 92.24205 30350 ft 494 kts 92°
2026-05-06 00:00 29.24158 92.28151 30663 ft 497 kts 92°
2026-05-06 00:00 29.24056 92.32116 30994 ft 500 kts 92°
2026-05-06 00:00 29.23955 92.36106 31310 ft 503 kts 92°
2026-05-06 00:00 29.23852 92.40122 31579 ft 506 kts 92°
2026-05-06 00:01 29.23746 92.44168 31955 ft 507 kts 92°
2026-05-06 00:01 29.23638 92.48201 32339 ft 507 kts 92°
2026-05-06 00:01 29.23550 92.52187 32769 ft 507 kts 90°
2026-05-06 00:01 29.23844 92.56212 33179 ft 508 kts 80°
2026-05-06 00:02 29.24669 92.60140 33592 ft 507 kts 70°
2026-05-06 00:02 29.25998 92.63866 34003 ft 504 kts 60°
2026-05-06 00:02 29.27700 92.67365 34338 ft 503 kts 57°
2026-05-06 00:02 29.29440 92.70855 34655 ft 503 kts 57°
2026-05-06 00:03 29.31165 92.74337 34914 ft 503 kts 57°
2026-05-06 00:03 29.32892 92.77832 35252 ft 503 kts 58°
2026-05-06 00:03 29.34613 92.81324 35597 ft 504 kts 57°
2026-05-06 00:03 29.36335 92.84819 35950 ft 504 kts 57°
2026-05-06 00:04 29.38067 92.88325 36306 ft 505 kts 57°
2026-05-06 00:04 29.39797 92.91828 36760 ft 504 kts 57°
2026-05-06 00:04 29.41525 92.95334 37087 ft 505 kts 57°
2026-05-06 00:04 29.43232 92.98803 37197 ft 504 kts 56°
2026-05-06 00:05 29.48365 93.09241 37209 ft 499 kts 57°
2026-05-06 00:06 29.51770 93.16175 37214 ft 500 kts 57°
2026-05-06 00:06 29.55176 93.23129 37204 ft 499 kts 57°
2026-05-06 00:07 29.58577 93.30093 37187 ft 499 kts 57°
2026-05-06 00:07 29.61972 93.37049 37191 ft 499 kts 58°
2026-05-06 00:08 29.65356 93.44008 37192 ft 500 kts 57°
2026-05-06 00:08 29.68753 93.51002 37198 ft 500 kts 57°
2026-05-06 00:09 29.72129 93.57964 37195 ft 497 kts 57°
2026-05-06 00:09 29.75467 93.64849 37201 ft 495 kts 57°
2026-05-06 00:10 29.78838 93.71827 37190 ft 495 kts 58°
2026-05-06 00:10 29.82165 93.78719 37197 ft 496 kts 57°
2026-05-06 00:11 29.85511 93.85666 37194 ft 495 kts 58°
2026-05-06 00:11 29.88786 93.92646 37167 ft 495 kts 63°
2026-05-06 00:12 29.90776 94.00260 37173 ft 498 kts 76°
2026-05-06 00:12 29.92313 94.08061 37184 ft 500 kts 76°
2026-05-06 00:13 29.93864 94.15849 37166 ft 498 kts 76°
2026-05-06 00:13 29.95406 94.23653 37179 ft 499 kts 76°
2026-05-06 00:14 29.96936 94.31420 37192 ft 500 kts 76°
2026-05-06 00:14 29.98467 94.39259 37205 ft 501 kts 76°
2026-05-06 00:15 29.99750 94.45822 37214 ft 500 kts 76°
2026-05-06 00:15 30.01278 94.53654 37206 ft 500 kts 76°
2026-05-06 00:16 30.03041 94.62756 37214 ft 500 kts 76°
2026-05-06 00:16 30.04305 94.69314 37182 ft 498 kts 76°
2026-05-06 00:17 30.05812 94.77129 37216 ft 499 kts 76°
2026-05-06 00:17 30.07299 94.84895 37219 ft 498 kts 76°
2026-05-06 00:18 30.08774 94.92678 37180 ft 494 kts 77°
2026-05-06 00:18 30.10265 95.00450 37186 ft 497 kts 76°
2026-05-06 00:19 30.11808 95.08213 37186 ft 496 kts 76°
2026-05-06 00:19 30.13372 95.15984 37181 ft 495 kts 76°
2026-05-06 00:20 30.14924 95.23747 37220 ft 496 kts 76°
2026-05-06 00:20 30.16452 95.31511 37212 ft 494 kts 76°
2026-05-06 00:21 30.17978 95.39274 37216 ft 495 kts 76°
2026-05-06 00:21 30.19485 95.46990 37231 ft 496 kts 76°
2026-05-06 00:22 30.21008 95.54791 37205 ft 492 kts 76°
2026-05-06 00:22 30.22521 95.62529 37224 ft 494 kts 76°
2026-05-06 00:23 30.24016 95.70249 37217 ft 490 kts 76°
2026-05-06 00:23 30.25505 95.77970 37226 ft 492 kts 76°
2026-05-06 00:24 30.26985 95.85653 37213 ft 492 kts 76°
2026-05-06 00:24 30.28469 95.93390 37204 ft 492 kts 76°
2026-05-06 00:25 30.29942 96.01115 37201 ft 492 kts 76°
2026-05-06 00:25 30.31464 96.08829 37196 ft 492 kts 76°
2026-05-06 00:26 30.33031 96.16539 37170 ft 492 kts 75°
2026-05-06 00:26 30.34592 96.24264 37171 ft 493 kts 75°
2026-05-06 00:27 30.36128 96.31994 37169 ft 492 kts 76°
2026-05-06 00:27 30.37656 96.39726 37159 ft 492 kts 76°
2026-05-06 00:28 30.39182 96.47451 37161 ft 492 kts 76°
2026-05-06 00:28 30.40705 96.55164 37157 ft 491 kts 76°
2026-05-06 00:29 30.42221 96.62876 37160 ft 491 kts 76°
2026-05-06 00:29 30.43725 96.70578 37159 ft 490 kts 76°
2026-05-06 00:30 30.45226 96.78287 37162 ft 490 kts 76°
2026-05-06 00:30 30.46721 96.85971 37151 ft 488 kts 76°
2026-05-06 00:31 30.48207 96.93602 37162 ft 489 kts 76°
2026-05-06 00:31 30.49697 97.01289 37142 ft 487 kts 76°
2026-05-06 00:32 30.51171 97.08963 37141 ft 487 kts 77°
2026-05-06 00:32 30.51907 97.16733 37124 ft 485 kts 96°
2026-05-06 00:32 30.51304 97.20565 37110 ft 481 kts 111°
2026-05-06 00:33 30.50060 97.24142 37107 ft 478 kts 117°
2026-05-06 00:33 30.47331 97.31171 37083 ft 478 kts 118°
2026-05-06 00:34 30.44554 97.38160 37077 ft 478 kts 118°
2026-05-06 00:34 30.41759 97.45176 37081 ft 479 kts 118°
2026-05-06 00:35 30.38977 97.52203 37065 ft 480 kts 118°
2026-05-06 00:35 30.36209 97.59228 37076 ft 480 kts 117°
2026-05-06 00:36 30.33426 97.66257 37068 ft 480 kts 118°
2026-05-06 00:36 30.30654 97.73222 37072 ft 479 kts 118°
2026-05-06 00:37 30.27858 97.80232 37075 ft 481 kts 118°
2026-05-06 00:37 30.25053 97.87252 37057 ft 478 kts 118°
2026-05-06 00:38 30.22255 97.94246 37064 ft 479 kts 118°
2026-05-06 00:38 30.19448 98.01253 37063 ft 480 kts 118°
2026-05-06 00:39 30.16639 98.08243 37069 ft 480 kts 118°
2026-05-06 00:39 30.13832 98.15223 37067 ft 479 kts 118°
2026-05-06 00:40 30.11015 98.22216 37075 ft 480 kts 119°
2026-05-06 00:40 30.08189 98.29197 37081 ft 480 kts 119°
2026-05-06 00:41 30.05364 98.36176 37085 ft 480 kts 119°
2026-05-06 00:41 30.02537 98.43155 37085 ft 480 kts 119°
2026-05-06 00:42 29.99708 98.50136 37083 ft 480 kts 119°
2026-05-06 00:42 29.96871 98.57114 37081 ft 481 kts 119°
2026-05-06 00:43 29.94020 98.64098 37087 ft 483 kts 119°
2026-05-06 00:43 29.91221 98.70971 36921 ft 462 kts 119°
2026-05-06 00:43 29.89860 98.74314 36460 ft 459 kts 119°
2026-05-06 00:44 29.88505 98.77627 36003 ft 456 kts 120°
2026-05-06 00:44 29.87154 98.80925 35613 ft 453 kts 120°
2026-05-06 00:44 29.85830 98.84152 35229 ft 449 kts 120°
2026-05-06 00:44 29.84471 98.87454 34454 ft 456 kts 120°
2026-05-06 00:45 29.83097 98.90783 33714 ft 462 kts 120°
2026-05-06 00:45 29.81727 98.94110 33176 ft 459 kts 119°
2026-05-06 00:45 29.80365 98.97426 32732 ft 455 kts 119°
2026-05-06 00:45 29.79020 99.00702 32238 ft 450 kts 119°
2026-05-06 00:46 29.77687 99.03943 31824 ft 446 kts 119°
2026-05-06 00:46 29.76363 99.07157 31433 ft 441 kts 119°
2026-05-06 00:46 29.75053 99.10329 31023 ft 437 kts 119°
2026-05-06 00:46 29.73752 99.13470 30641 ft 433 kts 119°
2026-05-06 00:47 29.72463 99.16583 30273 ft 428 kts 119°
2026-05-06 00:47 29.71187 99.19661 29872 ft 424 kts 119°
2026-05-06 00:47 29.69920 99.22717 29424 ft 421 kts 119°
2026-05-06 00:47 29.68682 99.25709 28971 ft 418 kts 118°
2026-05-06 00:48 29.67435 99.28721 28544 ft 416 kts 118°
2026-05-06 00:48 29.66193 99.31713 28104 ft 413 kts 118°
2026-05-06 00:48 29.64955 99.34686 27684 ft 411 kts 118°
2026-05-06 00:48 29.63726 99.37640 27264 ft 409 kts 118°
2026-05-06 00:49 29.62502 99.40584 26850 ft 406 kts 118°
2026-05-06 00:49 29.61291 99.43495 26428 ft 403 kts 118°
2026-05-06 00:49 29.60082 99.46395 25998 ft 401 kts 118°
2026-05-06 00:49 29.58877 99.49283 25573 ft 399 kts 118°
2026-05-06 00:50 29.57679 99.52152 25157 ft 397 kts 117°
2026-05-06 00:50 29.56486 99.55006 24715 ft 395 kts 117°
2026-05-06 00:50 29.55262 99.57814 24303 ft 391 kts 123°
2026-05-06 00:50 29.53568 99.60213 24061 ft 385 kts 138°
2026-05-06 00:51 29.51660 99.62382 24022 ft 386 kts 138°
2026-05-06 00:51 29.49745 99.64560 24038 ft 388 kts 138°
2026-05-06 00:51 29.47774 99.66794 24036 ft 407 kts 138°
2026-05-06 00:51 29.45706 99.69130 24038 ft 423 kts 138°
2026-05-06 00:52 29.43595 99.71518 24036 ft 428 kts 138°
2026-05-06 00:52 29.41490 99.73906 24029 ft 419 kts 138°
2026-05-06 00:52 29.39455 99.76224 23879 ft 407 kts 138°
2026-05-06 00:52 29.37467 99.78489 23652 ft 398 kts 138°
2026-05-06 00:53 29.35544 99.80669 23410 ft 390 kts 138°
2026-05-06 00:53 29.33626 99.82835 23143 ft 384 kts 139°
2026-05-06 00:53 29.31751 99.84950 22879 ft 373 kts 139°
2026-05-06 00:53 29.29866 99.86961 22717 ft 357 kts 146°
2026-05-06 00:54 29.28536 99.88025 22640 ft 347 kts 153°
2026-05-06 00:54 29.26424 99.89209 22500 ft 332 kts 164°
2026-05-06 00:54 29.24206 99.89960 21723 ft 337 kts 172°
2026-05-06 00:54 29.21895 99.90620 20929 ft 349 kts 166°
2026-05-06 00:55 29.19700 99.91859 20433 ft 355 kts 149°
2026-05-06 00:55 29.17862 99.93765 19942 ft 360 kts 131°
2026-05-06 00:55 29.16547 99.96214 19404 ft 365 kts 114°
2026-05-06 00:55 29.15852 99.99023 18799 ft 369 kts 99°
2026-05-06 00:56 29.15327 100.02817 18554 ft 355 kts 99°
2026-05-06 00:56 29.15068 100.04674 18464 ft 345 kts 99°
2026-05-06 00:56 29.14777 100.07361 18376 ft 335 kts 89°
2026-05-06 00:56 29.15153 100.09907 18230 ft 319 kts 64°
2026-05-06 00:57 29.16370 100.11918 18076 ft 300 kts 34°
2026-05-06 00:57 29.18155 100.12903 17802 ft 278 kts
2026-05-06 00:57 29.19967 100.12594 17487 ft 256 kts 327°
2026-05-06 00:57 29.21311 100.11365 17036 ft 247 kts 315°
2026-05-06 00:58 29.22576 100.10023 16457 ft 246 kts 314°
2026-05-06 00:58 29.23851 100.08811 16206 ft 232 kts 324°
2026-05-06 00:58 29.25336 100.08137 15737 ft 230 kts 343°
2026-05-06 00:58 29.26850 100.07680 15237 ft 224 kts 340°
2026-05-06 00:59 29.28346 100.07153 14858 ft 215 kts 341°
2026-05-06 00:59 29.29696 100.06700 14568 ft 197 kts 342°
2026-05-06 00:59 29.30918 100.06286 14479 ft 161 kts 343°
2026-05-06 00:59 29.31714 100.06019 14478 ft 87 kts 344°
2026-05-06 01:00 29.32072 100.05897 14478 ft 18 kts 336°
2026-05-06 01:00 29.32100 100.05915 14478 ft 8 kts 152°
2026-05-06 01:00 29.32038 100.05911 14478 ft 11 kts 176°
2026-05-06 01:00 29.31948 100.05940 14478 ft 16 kts 163°
2026-05-06 01:01 29.31831 100.05979 14478 ft 20 kts 163°
2026-05-06 01:01 29.31680 100.06031 14478 ft 25 kts 163°
2026-05-06 01:01 29.31503 100.06090 14478 ft 29 kts 163°
2026-05-06 01:01 29.31308 100.06155 14479 ft 27 kts 163°
2026-05-06 01:02 29.31212 100.06233 14479 ft 15 kts 78°
2026-05-06 01:02 29.31241 100.06342 14477 ft 11 kts 73°
2026-05-06 01:02 29.31233 100.06414 14478 ft 10 kts 148°
2026-05-06 01:02 29.31169 100.06436 14478 ft 10 kts 163°
2026-05-06 01:03 29.31136 100.06467 14478 ft 6 kts 99°
2026-05-06 01:03 29.31144 100.06506 14479 ft 3 kts 74°
2026-05-06 01:03 29.31148 100.06524 14474 ft 1 kts 73°
2026-05-06 01:03 29.31149 100.06527 14475 ft 0 kts 73°